User: anonymous   Login
Location: Newark
(43.0000°N, 1.6781°W)
Time: 06:56:12
(UTC+00:00)
Language:

VELOX 1 - Orbit

View from above orbital plane
View from above orbital plane
View from above satellite
View from above satellite

Ground track
Ground track

The orbit data is extracted from the following two-line orbital elements,

1 40057U 14034E   21128.93397616  .00000397  00000-0  62528-4 0  9992
2 40057  98.3230 281.7438 0010958 177.0545 183.0731 14.78149995369703
Epoch (UTC): 08 May 2021 22:24:55
Eccentricity: 0.0010958
inclination: 98.3230°
perigee height: 627 km
apogee height: 643 km
right ascension of ascending node: 281.7438°
argument of perigee: 177.0545°
revolutions per day: 14.78149995
mean anomaly at epoch: 183.0731°
orbit number at epoch: 36970

The dashed part of the orbit path shows where the satellite is in the earth's shadow,  

DLR